DW3263 Weather Reports


Display with metric or nautical units.
time (UTC)temp
F
wind
direction
speed
MPH
gust
MPH
rain 1hr
in
rain 24hr
in
rain mn
in
humidity
%
barometer
mb
20260503234519 58 293 3.0 6.0 0.00 0.01 0.01 38 1011.3
20260503233728 59 293 4.0 9.0 0.00 0.01 0.01 38 1011.2
20260503232519 59 293 2.0 5.0 0.00 0.01 0.01 37 1011.2
20260503231519 59 248 3.0 8.0 0.00 0.01 0.01 36 1011.1
20260503230519 60 270 5.0 12.0 0.00 0.01 0.01 35 1011.1
20260503225519 60 338 3.0 8.0 0.00 0.01 0.01 36 1011.1
20260503224733 60 315 5.0 9.0 0.00 0.01 0.01 35 1011.0
20260503223519 60 270 5.0 11.0 0.00 0.01 0.01 35 1011.1
20260503222730 60 293 5.0 11.0 0.00 0.01 0.01 34 1011.1
20260503221519 59 270 6.0 14.0 0.00 0.01 0.01 34 1011.1
20260503220519 60 293 7.0 15.0 0.00 0.01 0.01 34 1011.2
20260503215519 60 270 3.0 7.0 0.00 0.01 0.01 35 1011.2
20260503214519 60 270 5.0 11.0 0.00 0.01 0.01 35 1011.1
20260503213519 61 270 7.0 13.0 0.00 0.01 0.01 34 1011.0
20260503212519 60 315 6.0 12.0 0.00 0.01 0.01 35 1011.0
20260503211519 61 293 6.0 13.0 0.00 0.01 0.01 35 1011.0
20260503210519 60 315 5.0 13.0 0.00 0.01 0.01 34 1011.1
20260503205519 60 293 8.0 22.0 0.00 0.01 0.01 36 1011.2
20260503204519 60 315 6.0 19.0 0.00 0.01 0.01 37 1011.1
20260503203519 60 270 4.0 12.0 0.00 0.01 0.01 36 1011.1
20260503202519 59 293 4.0 10.0 0.00 0.01 0.01 38 1011.2
20260503201732 60 315 6.0 13.0 0.00 0.01 0.01 37 1011.3
20260503200520 60 315 9.0 20.0 0.00 0.01 0.01 36 1011.5
20260503195519 59 293 8.0 20.0 0.00 0.01 0.01 38 1011.5
20260503194519 59 293 7.0 15.0 0.00 0.01 0.01 36 1011.4
20260503193519 59 315 7.0 21.0 0.00 0.01 0.01 36 1011.7
20260503192520 59 270 5.0 16.0 0.01 0.01 0.01 35 1011.9
20260503191519 58 293 8.0 20.0 0.01 0.01 0.01 37 1011.9
20260503190519 58 270 8.0 13.0 0.01 0.01 0.01 36 1012.1
20260503185519 57 293 8.0 17.0 0.01 0.01 0.01 38 1012.1
20260503184519 57 293 8.0 13.0 0.01 0.01 0.01 38 1012.3
20260503183520 57 315 9.0 22.0 0.01 0.01 0.01 36 1012.5
20260503182519 57 293 6.0 12.0 0.00 0.00 0.00 37 1012.4
20260503181519 57 293 6.0 18.0 0.00 0.00 0.00 38 1012.4
20260503180519 56 293 6.0 10.0 0.00 0.00 0.00 37 1012.3
20260503175519 56 315 7.0 17.0 0.00 0.00 0.00 36 1012.4
20260503174519 56 293 7.0 15.0 0.00 0.00 0.00 39 1012.5
20260503173519 56 293 3.0 9.0 0.00 0.00 0.00 44 1012.4
20260503172520 55 315 7.0 17.0 0.00 0.00 0.00 39 1012.8
20260503171519 55 270 7.0 15.0 0.00 0.00 0.00 39 1012.8
20260503170519 55 315 7.0 16.0 0.00 0.00 0.00 38 1012.9
20260503150519 50 293 9.0 22.0 0.00 0.01 0.00 43 1014.1
20260503130519 46 293 4.0 7.0 0.00 0.01 0.00 52 1014.2
20260503110519 39 0.0 2.0 0.00 0.01 0.00 63 1013.5
20260503081520 42 315 4.0 10.0 0.00 0.01 0.00 63 1012.0
20260503080520 42 315 4.0 7.0 0.00 0.01 0.00 63 1012.0
20260503072520 43 315 2.0 6.0 0.00 0.01 0.00 65 1011.6
20260503071730 43 315 3.0 5.0 0.00 0.01 0.00 64 1011.5
20260503070520 43 315 3.0 6.0 0.00 0.01 0.00 65 1011.4
20260503054520 42 0.0 0.0 0.00 0.01 0.00 58 1011.6
20260503053520 42 0.0 0.0 0.00 0.01 0.00 57 1011.6
20260503052520 42 0.0 0.0 0.00 0.01 0.00 58 1011.7
20260503051520 43 0.0 0.0 0.00 0.01 0.00 60 1011.9
20260503050520 43 0.0 1.0 0.00 0.01 0.00 61 1011.9
20260503045520 43 315 1.0 3.0 0.00 0.01 0.00 63 1012.0
20260503044520 44 315 1.0 3.0 0.00 0.01 0.00 63 1012.0
20260503043520 44 315 3.0 6.0 0.00 0.01 0.00 64 1012.0
20260503042520 44 315 4.0 8.0 0.00 0.01 0.00 64 1012.0
20260503041520 45 315 4.0 10.0 0.00 0.01 0.00 64 1012.0
20260503040520 45 315 4.0 9.0 0.00 0.01 0.00 65 1012.0
20260503035519 45 315 4.0 8.0 0.00 0.01 0.01 65 1012.1
20260503034520 45 315 5.0 9.0 0.00 0.01 0.01 65 1012.1
20260503033731 46 293 3.0 8.0 0.00 0.01 0.01 64 1012.1
20260503032519 45 293 3.0 6.0 0.00 0.01 0.01 64 1012.1
20260503031520 46 293 3.0 7.0 0.00 0.01 0.01 64 1012.2
20260503030519 46 293 4.0 8.0 0.00 0.01 0.01 64 1012.3
20260503025519 46 293 3.0 9.0 0.00 0.01 0.01 64 1012.4
20260503024519 46 293 2.0 7.0 0.00 0.01 0.01 64 1012.4
20260503023519 46 293 1.0 3.0 0.00 0.01 0.01 64 1012.4
20260503022520 46 293 1.0 2.0 0.00 0.01 0.01 64 1012.5
20260503021520 46 293 1.0 4.0 0.00 0.01 0.01 64 1012.5
20260503020519 46 293 2.0 5.0 0.00 0.01 0.01 64 1012.5
20260503015519 47 293 3.0 5.0 0.00 0.01 0.01 64 1012.4
20260503014519 47 293 3.0 8.0 0.00 0.01 0.01 64 1012.4
20260503013732 47 293 2.0 5.0 0.00 0.01 0.01 64 1012.4
20260503012519 47 293 2.0 5.0 0.00 0.01 0.01 64 1012.3
20260503011519 47 293 1.0 3.0 0.00 0.01 0.01 64 1012.1
20260503010520 47 293 2.0 4.0 0.00 0.01 0.01 64 1012.0
20260503005519 47 0.0 2.0 0.00 0.01 0.01 64 1011.9
20260503004519 48 270 1.0 3.0 0.00 0.01 0.01 63 1011.8
20260503003519 48 0.0 3.0 0.00 0.01 0.01 63 1011.7
20260503002520 48 270 3.0 7.0 0.00 0.01 0.01 62 1011.6
20260503001730 48 315 2.0 6.0 0.00 0.01 0.01 64 1011.6
20260503000520 48 315 1.0 5.0 0.00 0.01 0.01 63 1011.6
20260502235520 48 315 3.0 6.0 0.00 0.01 0.01 62 1011.5